Saved Properties
    Saved Searches
          Recently viewed properties

            AIDA

            Real Estate Artificial Intelligence Digital Assistant

            Disclaimer

            AIDA (Artificial Intelligence Digital Assistant) is currently in BETA version, and is available at no charge for a limited time.

            Some features are limited, with full access granted only to our clients and real estate agents representing ITRealty.

            All results are for informational purposes only, and we do not guarantee neither take any responsibility for AIDA's CMA accuracy. Please use it for the informational purpose only at your own risk, contact your agent (or one of ours), or a professional appraisal company for more details.

            AIDA's CMA is taking into account real estate market fluctuations for given type properties in the city and neighborhood, so sometimes CMA may significately vary from the prices properties are listed at.

            Please check below on the page for what AIDA is not including into the CMA.

            Comparative Market Analysis for MLS# C5109989

            $1,800
            1br 1ba 500-599sf

            Water

            Y

            Heating

            Y

            Hydro

            N

            Parking

            N

            Laundry

            Ensuite

            WalkScore

            98

            TransitScore

            100

            Compare$1,742

            Please Login for the Map View

            Property Details Provided By
            Property Details Provided By Toronto Real Estate Board
            Listed By

            TRADEWORLD REALTY INC, BROKERAGE

            Learn more about this property:
            MLS# C5109989 Listing Details
            Among all comparable properties rented in condo located at 70 Temperance St in Bay Street Corridor in Toronto from Jan 2018 to Feb 2021, after adjusting rental rates accordin to market conditions at the time of sale, AIDA has calculated that:
            Minimum Rent Adjusted was:

            $1,448

            Maximum Rent Adjusted was:

            $2,004

            AIDA's ESTIMATE (based on 110 properties)
            AIDA's Comparative Market Analysis is based on comparable properties sales data adjusted according to the monthly fluctuations of the local real estate market, and is equivalent to:

            $XXX,XXX

            Which makes the Asking Price ($1,800) more than AIDA's Appraised Value by:

            $XX,XXX

            Or, in percentage equivalent, by:

            XX%

            Notes
            • Condo lockers are not taken into account.
            • Upgrades and quality of renovation are not taken into account.

            Comparables

            AIDA found 110 comparable properties rented out in condo located at 70 Temperance St in Bay Street Corridor in Toronto from Jan 2018 to Feb 2021

            Use the table's first column checkboxes to exclude/include properties into evaluation. The numbers above will automatically get recalculated accordingly.

            Sold onFloorUnit#AddressExpSQFTBed • BathGar SpacesSold PriceTime Adj %Time Adj Price
            2018-01-19***251670 Temperance StN500-5991+0 • 10.0$2,000-24.24%***
            2018-03-03***190270 Temperance StN500-5991+0 • 10.0$2,000-22.91%***
            2018-03-15***310770 Temperance StN500-5991+1 • 10.0$2,250-22.91%***
            2018-03-25***410870 Temperance StS500-5991+1 • 10.0$2,200-22.91%***
            2018-04-01***490970 Temperance StS500-5991+1 • 10.0$2,300-22.8%***
            2018-05-01***540770 Temperance StS500-5991+1 • 10.0$2,300-22.19%***
            2018-06-09***140970 Temperance StS500-5991+1 • 10.0$2,300-22.9%***
            2018-07-04***150270 Temperance StN500-5991+0 • 10.0$2,175-24.69%***
            2018-07-04***91270 Temperance StW500-5991+0 • 10.0$2,250-24.69%***
            2018-07-05***90970 Temperance StS500-5991+1 • 10.0$2,240-24.69%***
            2018-07-06***380270 Temperance StN500-5991+1 • 10.0$2,200-24.69%***
            2018-07-07***470970 Temperance StS500-5991+1 • 10.0$2,350-24.69%***
            2018-07-09***140270 Temperance StN500-5991+0 • 10.0$2,175-24.69%***
            2018-07-19***90770 Temperance StN500-5991+1 • 10.0$2,400-24.69%***
            2018-08-06***50870 Temperance StS500-5991+1 • 10.0$2,400-26.62%***
            2018-08-08***300770 Temperance StS500-5991+1 • 10.0$2,400-26.62%***
            2018-08-17***190870 Temperance StS500-5991+1 • 10.0$2,600-26.62%***
            2018-08-22***201270 Temperance StS500-5991+0 • 10.0$2,200-26.62%***
            2018-09-07***200270 Temperance StN500-5991+0 • 10.0$2,250-28.07%***
            2018-09-07***280770 Temperance StS500-5991+1 • 10.0$2,550-28.07%***
            2018-09-12***381670 Temperance StN500-5991+0 • 10.0$2,200-28.07%***
            2018-09-14***220870 Temperance StS500-5991+1 • 10.0$2,500-28.07%***
            2018-10-04***531070 Temperance StS500-5991+0 • 10.0$2,250-27.49%***
            2018-10-21***330970 Temperance StS500-5991+1 • 10.0$2,350-27.49%***
            2018-10-26***250870 Temperance StS500-5991+1 • 10.0$2,300-27.49%***
            2018-10-26***180270 Temperance StN500-5991+1 • 10.0$2,250-27.49%***
            2018-10-31***430870 Temperance StS500-5991+1 • 10.0$2,495-27.49%***
            2018-11-08***340770 Temperance StS500-5991+1 • 10.0$2,300-26.1%***
            2018-11-27***400970 Temperance StS500-5991+1 • 10.0$2,400-26.1%***
            2018-12-12***4810U70 Temperance StS500-5991+0 • 10.0$2,350-23.4%***
            2018-12-17***290870 Temperance StS500-5991+1 • 10.0$2,400-23.4%***
            2019-01-11***520270 Temperance StN500-5991+1 • 10.0$2,380-22.02%***
            2019-02-09***530770 Temperance StS500-5991+1 • 10.0$2,520-23.4%***
            2019-03-19***480270 Temperance StN500-5991+1 • 10.0$2,300-23.59%***
            2019-03-19***270770 Temperance StS500-5991+1 • 10.0$2,400-23.59%***
            2019-04-05***340870 Temperance StS500-5991+1 • 10.0$2,350-24.5%***
            2019-04-24***430970 Temperance StreetS500-5991+1 • 10.0$2,400-24.5%***
            2019-04-26***480970 Temperance StreetS500-5991+1 • 10.0$2,450-24.5%***
            2019-05-13***270270 Temperance StreetN500-5991+1 • 10.0$2,299-25.58%***
            2019-05-16***90870 Temperance StreetS500-5991+1 • 10.0$2,300-25.58%***
            2019-05-17***410270 Temperance StreetN500-5991+1 • 10.0$2,300-25.58%***
            2019-05-27***290270 Temperance StreetN500-5991+1 • 10.0$2,350-25.58%***
            2019-06-20***91270 Temperance StreetW500-5991+0 • 10.0$2,295-25.76%***
            2019-07-17***160870 Temperance StreetS500-5991+1 • 10.0$2,500-27.22%***
            2019-07-22***470970 Temperance StreetS500-5991+1 • 10.0$2,500-27.22%***
            2019-07-29***250270 Temperance StreetN500-5991+0 • 10.0$2,400-27.22%***
            2019-08-03***390870 Temperance StreetS500-5991+1 • 10.0$2,500-28.42%***
            2019-08-05***40970 Temperance StreetS500-5991+1 • 10.0$2,450-28.42%***
            2019-08-12***60970 Temperance StreetS500-5991+1 • 10.0$2,450-28.42%***
            2019-08-13***280770 Temperance StreetS500-5991+1 • 10.0$2,500-28.42%***
            2019-08-21***190870 Temperance StreetS500-5991+1 • 10.0$2,600-28.42%***
            2019-08-25***150270 Temperance StreetN500-5991+0 • 10.0$2,250-28.42%***
            2019-09-11***200870 Temperance StreetS500-5991+1 • 10.0$2,400-28.99%***
            2019-09-22***140870 Temperance StreetS500-5991+1 • 10.0$2,425-28.99%***
            2019-10-10***220870 Temperance StreetS500-5991+1 • 10.0$2,450-28.42%***
            2019-10-11***Ph0670 Temperance StreetS500-5991+1 • 10.0$2,800-28.42%***
            2019-10-15***140870 Temperance StreetS500-5991+1 • 10.0$2,425-28.42%***
            2019-11-10***341470 Temperance StreetW500-5991+0 • 10.0$2,000-27.58%***
            2019-12-03***310770 Temperance StreetS500-5991+1 • 10.0$2,500-25.54%***
            2020-01-04***190270 Temperance StreetN500-5991+1 • 10.0$2,200-23.59%***
            2020-01-22***4810U70 Temperance StreetS500-5991+0 • 10.0$2,200-23.59%***
            2020-01-26***210770 Temperance StreetS500-5991+1 • 10.0$2,250-23.59%***
            2020-02-13***430870 Temperance StreetS500-5991+1 • 10.0$2,500-22.76%***
            2020-02-22***180870 Temperance StreetS500-5991+1 • 10.0$2,400-22.76%***
            2020-02-23***490270 Temperance StreetN500-5991+1 • 10.0$2,300-22.76%***
            2020-02-25***400770 Temperance StreetS500-5991+1 • 10.0$2,400-22.76%***
            2020-04-02***61270 Temperance StreetW500-5991+0 • 10.0$1,850-21.26%***
            2020-04-23***470270 Temperance StreetN500-5991+1 • 10.0$2,200-21.26%***
            2020-04-26***430970 Temperance StreetS500-5991+1 • 10.0$2,000-21.26%***
            2020-06-07***530770 Temperance StreetS500-5991+1 • 10.0$2,300-19.15%***
            2020-06-11***310770 Temperance StreetS500-5991+1 • 10.0$2,200-19.15%***
            2020-06-18***460870 Temperance StreetS500-5991+1 • 10.0$2,200-19.15%***
            2020-07-21***450970 Temperance Street EastS500-5991+1 • 10.0$2,200-17.8%***
            2020-07-21***270270 Temperance StreetN500-5991+1 • 10.0$1,950-17.8%***
            2020-07-23***150270 Temperance StreetN500-5991+0 • 10.0$1,850-17.8%***
            2020-07-26***460270 Temperance StreetN500-5991+0 • 10.0$1,900-17.8%***
            2020-08-05***40970 Temperance StreetS500-5991+1 • 10.0$1,750-16.53%***
            2020-08-19***#290870 Temperance StreetS500-5991+1 • 10.0$1,950-16.53%***
            2020-08-23***340870 Temperance StreetS500-5991+1 • 10.0$2,180-16.53%***
            2020-09-02***120870 Temperance StreetS500-5991+1 • 10.0$1,850-13.94%***
            2020-09-05***50870 Temperance StreetS500-5991+1 • 10.0$1,850-13.94%***
            2020-09-09***370270 Temperance StreetN500-5991+0 • 10.0$1,800-13.94%***
            2020-09-10***160970 Temperance StreetS500-5991+1 • 10.0$1,800-13.94%***
            2020-09-12***140770 Temperance StreetS500-5991+1 • 10.0$1,850-13.94%***
            2020-09-13***270970 Temperance StreetS500-5991+1 • 10.0$1,900-13.94%***
            2020-09-13***270270 Temperance StreetN500-5991+0 • 10.0$1,775-13.94%***
            2020-09-18***400970 Temperance StreetS500-5991+1 • 10.0$2,100-13.94%***
            2020-09-30***150770 Temperance StreetS500-5991+1 • 10.0$1,750-13.94%***
            2020-10-09***420870 Temperance StreetS500-5991+1 • 10.0$2,050-10.88%***
            2020-10-13***330970 Temperance StreetS500-5991+1 • 10.0$1,900-10.88%***
            2020-10-14***120270 Temperance StreetN500-5991+0 • 10.0$1,650-10.88%***
            2020-10-21***460770 Temperance StreetS500-5991+1 • 10.0$1,950-10.88%***
            2020-10-22***210770 Temperance StreetS500-5991+1 • 10.0$1,750-10.88%***
            2020-11-07***251670 Temperance StreetN500-5991+0 • 10.0$1,600-7.3%***
            2020-11-09***230970 Temperance StreetS500-5991+1 • 10.0$1,700-7.3%***
            2020-11-10***530270 Temperance StreetN500-5991+1 • 10.0$1,800-7.3%***
            2020-11-17***490270 Temperance StreetN500-5991+1 • 10.0$1,750-7.3%***
            2020-11-19***190870 Temperance StreetS500-5991+1 • 10.0$1,700-7.3%***
            2020-11-24***170870 Temperance StreetS500-5991+1 • 10.0$1,650-7.3%***
            2020-11-26***490870 Temperance StreetS500-5991+1 • 10.0$1,700-7.3%***
            2020-11-30***260970 Temperance StreetS500-5991+1 • 10.0$1,700-7.3%***
            2020-12-02***210970 Temperance StreetS500-5991+1 • 10.0$1,680-3.42%***
            2020-12-16***430870 Temperance StreetS500-5991+1 • 10.0$1,800-3.42%***
            2020-12-19***100270 Temperance StreetN500-5991+0 • 10.0$1,700-3.42%***
            2020-12-22***170970 Temperance StreetS500-5991+1 • 10.0$1,700-3.42%***
            2021-01-11***520970 Temperance StreetS500-5991+1 • 10.0$1,950-1.06%***
            2021-01-25***490970 Temperance StreetS500-5991+1 • 10.0$1,900-1.06%***
            2021-01-26***340970 Temperance StreetS500-5991+1 • 10.0$1,700-1.06%***
            2021-02-01***280770 Temperance StreetS500-5991+1 • 10.0$1,7500%***
            2021-02-16***470970 Temperance StreetS500-5991+1 • 10.0$1,8500%***

            Bay Street Corridor, Toronto Sales History More

            Bay Street Corridor, Toronto: Overall Sales Statistics for Condos
            Powered by AIDA © (itrealty.ca/aida)
            Neighborhood Sales Statistics
            Powered by AIDA © (itrealty.ca/aida)
            Neighborhood Rent Statistics
            Bay Street Corridor, Toronto: Detailed Sales & Rent Statistics for Condos
            Listing Overview

            General:

            2502 70 Temperance St is a condo apt apartment, located in Bay Street Corridor of city of Toronto, Toronto region, near Bay/Richmond, and has been available for lease on ITRealty since 2021-02-10. This unit is located at level 24 of the building and has North exposure of Temperance St. Condo registry office is TSCC, corporation number 2529.

            Lot Size and Living Area:

            2502 70 Temperance St has 4+1 rooms in total, including 1+0 bedroms, 1 baths and 1 kitchen. Please find this condo rooms details on this page above.
            Living area of this condo unit is within the range of 500-599 square feet. The locker is owned. A ensuite laundry is available at this condo &(type).

            Heating and Cooling:

            The condo heat source is Gas, the heat type is Forced Air and air-conditioning is Central Air.

            Listing Features:


            AIDA has also found the following features: Motivated Seller Indications, and possible sellers motivation indicators such as Listing Ad says Motivated Seller.

            Price & Cost Overview

            General:

            2502 70 Temperance St condo apt is listed for $1,800.

            Comparative Market Analysis:

            There are similar 1+0 bedr condo apt recently sold for an average Time Adjusted Selling Price of $1,742.
            Visit a customized Comparative Market Analysis page for more details.

            Location Overview

            General:

            Bay Street Corridor, where 70 Temperance St is located, has $842,547 Home Price Index, and $2,320 Home Rent Index. Average household income at dissemination area of 70 Temperance St is $110,336, and average polulation age is 40 years old.
            Average Home Price Index among 142 evaluated neighborhoods in city of Toronto is $1,068,857, and average Home Rent Index $2,526.

            Similar Properties & Community Details:

            There are similar to 2502 70 Temperance St 1 bedr condo apt condos listed For Sale and For Rent in city of Toronto.
            Learn about the prices of Recently Sold Condos and Recently Rented Condos near 70 Temperance St.
            You may also find useful information about the schools, real estate sales and rent statistics, home price index and more at Bay Street Corridor neighborhood in city of Toronto.

            Walkscore, Transitscore, and Bikescore:

            With Walkscore, Transitscore, and Bikescore of 98, 100, and 90 accordingly, location of 70 Temperance St overall can be described as Walker's Paradise, Rider's Paradise, and Biker's Paradise.

            2502 70 Temperance St Listings History Powered By AIDA
            Bay Street Corridor, Toronto Sales & Rent History Powered by AIDA
            Disclaimer

            All results are for informational purposes only, and we do not guarantee neither take any responsibility for AIDA's CMA accuracy. Please use it for the informational purpose only at your own risk, contact your agent (or one of ours), or a professional appraisal company for more details.

            City of Toronto Condos MOI (Months of Inventory)
            Last month sales statistics:
            It is a Sellers market. Existing inventory is less than enough for 4 months sales supply (29 days).
            Sellers are not likely to negotiate the price, but it is easier to sell your own property.
            Buy first, sell next is a possible strategy, as your own properety may go up in price while you are shopping.
            How often similar homes get rented?
            You may expect 156 to 191 properties like that to be sold in Bay Street Corridor during the next 30 days.
            Seasonal sales fluctuation is showing 31% inventory increase comparing to the average annual number, which is equvalent to 132.25 properties sold per month, and 0% increase comparing to the last six months.
            How soon can it be sold?
            This property has been on the market for 17 days, which is 19 days less than the recent sales average and can be considered as a relatively new listing that can be sold at any time if the price is right.
            Seasonal sales fluctuation is showing 21% D.O.M. increase comparing to the average annual number, which is equvalent to 29 D.O.M., and 11% increase comparing to the last six months indicating slightly declining demand for this type of property within this price range.
            At what price can it be sold?
            Similar properties currently sell at 1.43% below its asking price in Bay Street Corridor.
            The selling to asking price ratio is slighyly growing, as this housing type demand remains stable in Bay Street Corridor.
            This property has not been on the market for long enough yet to guess if it can be sold above the asking price, but it can get sold in the nearest future if the price is right.
            Have a look at comparable properties sold in the past, to get a better idea about this home market value: MLS C5109989 Comparative Market Analysis

            Have Questions? We can help.

            Every property is different. Automated appraisals can't accurately tell you how much a property is really worth.

            Talk to an expert to find today's market price for any given property before you put in an offer. Free no obligation property evaluation. Limited to our clients only.

            Have a property to sell?

            Ask us for a comprehensive property evaluation at no charge, based on the Comparative Market Analysis and the personal experience of local agents.

            Free Property Evaluation